• Join FlightAware (Why Join?)
  • Login
  • US Flag 
08:53PM EDT


 

Airport Tracker/Info


-or-


 

Live Flight TrackerFlight Track Log ✈ SWA558 ✈ 16-Apr-2013 ✈ KRSW - KMDW

Flight Track Log - Related Links

Times and Time Zones

All times are in EDT time to prevent confusion due to time zone crossing. See the SWA558 flight status page for this flight to view local times or setup timezone preferences in your user account.

Time Position Orientation Groundspeed Altitude Reporting Facility
EDT Latitude Longitude Course Direction KTS MPH feet Rate Location/Type
12:31PM 26.6178 -81.7150 360° North 221 254 3,900  Level Miami Center
12:32PM 26.6844 -81.7156 360° North 284 327 7,000 3,060 Climbing Miami Center
12:33PM 26.7614 -81.7233 355° North 294 338 10,100 2,400 Climbing Miami Center
12:34PM 26.8531 -81.7317 355° North 303 349 11,900 2,460 Climbing Miami Center
12:35PM 26.9572 -81.7408 356° North 333 383 15,100 3,000 Climbing Miami Center
12:36PM 27.0586 -81.7614 350° North 360 414 17,900 2,460 Climbing Miami Center
12:37PM 27.1642 -81.7914 346° North 375 432 20,100 2,220 Climbing Miami Center
12:38PM 27.2717 -81.8217 346° North 395 455 22,400 2,160 Climbing Miami Center
12:39PM 27.3833 -81.8500 347° North 401 461 24,500 1,860 Climbing Miami Center
12:40PM 27.4867 -81.8778 347° North 412 474 26,200 1,440 Climbing Miami Center
12:42PM 27.7061 -81.9411 346° North 424 488 28,600 1,320 Climbing Jacksonville Center
12:43PM 27.8317 -81.9703 348° North 450 518 29,900 1,500 Climbing Jacksonville Center
12:44PM 27.9508 -82.0044 346° North 455 524 31,700 1,920 Climbing Jacksonville Center
12:45PM 28.0597 -82.0600 336° Northwest 438 504 33,800 1,800 Climbing Jacksonville Center
12:46PM 28.1664 -82.1156 335° Northwest 427 491 35,300 1,440 Climbing Jacksonville Center
12:47PM 28.2772 -82.1594 341° North 422 486 36,700 1,320 Climbing Jacksonville Center
12:48PM 28.3858 -82.2036 340° North 416 479 38,000 600 Climbing Jacksonville Center
12:49PM 28.4947 -82.2453 341° North 411 473 38,000  Level Jacksonville Center
12:50PM 28.6033 -82.2919 339° North 411 473 38,000  Level Jacksonville Center
12:51PM 28.7122 -82.3364 340° North 411 473 38,000  Level Jacksonville Center
12:52PM 28.8292 -82.3783 343° North 401 461 38,000  Level Jacksonville Center
12:53PM 28.9381 -82.4253 339° North 407 468 38,000  Level Jacksonville Center
12:54PM 29.0467 -82.4697 340° North 407 468 38,000  Level Jacksonville Center
12:55PM 29.1553 -82.5122 341° North 407 468 38,000  Level Jacksonville Center
12:56PM 29.2597 -82.5547 340° North 407 468 38,000  Level Jacksonville Center
12:57PM 29.3683 -82.6019 339° North 407 468 38,000  Level Jacksonville Center
12:58PM 29.4731 -82.6444 341° North 407 468 38,000  Level Jacksonville Center
12:59PM 29.5711 -82.6872 339° North 413 475 38,000  Level Jacksonville Center
01:00PM 29.6797 -82.7325 340° North 413 475 38,000  Level Jacksonville Center
01:01PM 29.7864 -82.7753 341° North 408 470 38,000  Level Jacksonville Center
01:02PM 29.8947 -82.8206 340° North 408 470 38,000  Level Jacksonville Center
01:03PM 30.0056 -82.8661 340° North 408 470 38,000  Level Jacksonville Center
01:04PM 30.1142 -82.9094 341° North 413 475 38,000  Level Jacksonville Center
01:05PM 30.2247 -82.9550 340° North 413 475 38,000  Level Jacksonville Center
01:06PM 30.3333 -83.0008 340° North 407 468 38,000  Level Jacksonville Center
01:07PM 30.4419 -83.0444 341° North 407 468 38,000  Level Jacksonville Center
01:08PM 30.5503 -83.0903 340° North 407 468 38,000  Level Jacksonville Center
01:09PM 30.6589 -83.1342 341° North 407 468 38,000  Level Jacksonville Center
01:10PM 30.7672 -83.1756 342° North 413 475 38,000  Level Jacksonville Center
01:11PM 30.8903 -83.2144 345° North 408 470 38,000  Level Jacksonville Center
01:12PM 31.0031 -83.2489 345° North 408 470 38,000  Level Jacksonville Center
01:13PM 31.1136 -83.2808 346° North 408 470 38,000  Level Jacksonville Center
01:15PM 31.3125 -83.3439 345° North 431 496 38,000  Level Atlanta Center
01:16PM 31.4275 -83.3769 346° North 426 490 38,000  Level Atlanta Center
01:17PM 31.5425 -83.4103 346° North 426 490 38,000  Level Atlanta Center
01:18PM 31.6575 -83.4461 345° North 426 490 38,000  Level Atlanta Center
01:19PM 31.7744 -83.4794 346° North 426 490 38,000  Level Atlanta Center
01:20PM 31.8894 -83.5153 345° North 426 490 38,000  Level Atlanta Center
01:21PM 32.0044 -83.5514 345° North 426 490 38,000  Level Atlanta Center
01:22PM 32.1047 -83.5828 345° North 420 483 38,000  Level Atlanta Center
01:23PM 32.2156 -83.6192 344° North 420 483 38,000  Level Atlanta Center
01:24PM 32.3306 -83.6553 345° North 420 483 38,000  Level Atlanta Center
01:25PM 32.4433 -83.6894 346° North 420 483 38,000  Level Atlanta Center
01:26PM 32.5539 -83.7233 346° North 420 483 38,000  Level Atlanta Center
01:27PM 32.6667 -83.7600 345° North 420 483 38,000  Level Atlanta Center
01:28PM 32.7794 -83.7942 346° North 415 478 38,000  Level Atlanta Center
01:29PM 32.8922 -83.8311 345° North 415 478 38,000  Level Atlanta Center
01:30PM 33.0031 -83.8656 345° North 415 478 38,000  Level Atlanta Center
01:31PM 33.1219 -83.9025 345° North 415 478 38,000  Level Atlanta Center
01:32PM 33.2369 -83.9369 346° North 410 472 38,000  Level Atlanta Center
01:33PM 33.3475 -83.9717 345° North 410 472 38,000  Level Atlanta Center
01:34PM 33.4561 -84.0064 345° North 410 472 38,000  Level Atlanta Center
01:35PM 33.5689 -84.0439 345° North 410 472 38,000  Level Atlanta Center
01:36PM 33.6794 -84.0789 345° North 410 472 38,000  Level Atlanta Center
01:37PM 33.7900 -84.1114 346° North 410 472 38,000  Level Atlanta Center
01:38PM 33.9028 -84.1464 346° North 415 478 38,000  Level Atlanta Center
01:39PM 34.0153 -84.1817 345° North 415 478 38,000  Level Atlanta Center
01:40PM 34.1239 -84.2244 342° North 407 468 38,000  Level Atlanta Center
01:41PM 34.2428 -84.2600 346° North 417 480 38,000  Level Atlanta Center
01:42PM 34.3556 -84.2953 346° North 417 480 38,000  Level Atlanta Center
01:43PM 34.4700 -84.3336 345° North 417 480 38,000  Level Atlanta Center
01:44PM 34.5703 -84.3667 345° North 417 480 38,000  Level Atlanta Center
01:45PM 34.6808 -84.4025 345° North 410 472 38,000  Level Atlanta Center
01:46PM 34.7933 -84.4383 345° North 415 478 38,000  Level Atlanta Center
01:47PM 34.9058 -84.4769 344° North 415 478 38,000  Level Atlanta Center
01:48PM 35.0122 -84.5131 344° North 404 465 38,000  Level Atlanta Center
01:49PM 35.1247 -84.5517 344° North 404 465 38,000  Level Atlanta Center
01:50PM 35.2350 -84.5881 345° North 404 465 38,000  Level Atlanta Center
01:51PM 35.3475 -84.6269 344° North 409 471 38,000  Level Atlanta Center
01:52PM 35.4600 -84.6633 345° North 409 471 38,000  Level Atlanta Center
01:53PM 35.5747 -84.7025 344° North 414 476 38,000  Level Atlanta Center
01:54PM 35.6872 -84.7394 345° North 414 476 38,000  Level Atlanta Center
01:55PM 35.7994 -84.7761 345° North 414 476 38,000  Level Atlanta Center
01:56PM 35.9286 -84.8183 345° North 429 494 38,000  Level Atlanta Center
01:58PM 36.1819 -84.9047 345° North 429 494 38,000  Level Indianapolis Center
01:59PM 36.2969 -84.9444 344° North 430 495 38,000  Level Indianapolis Center
02:00PM 36.4122 -84.9833 345° North 429 494 38,000  Level Indianapolis Center
02:01PM 36.5264 -85.0219 345° North 427 491 38,000  Level Indianapolis Center
02:02PM 36.6411 -85.0628 344° North 427 491 38,000  Level Indianapolis Center
02:03PM 36.7558 -85.1033 344° North 428 493 38,000  Level Indianapolis Center
02:04PM 36.8961 -85.1481 346° North 432 497 38,000  Level Indianapolis Center
02:05PM 37.0156 -85.1758 349° North 435 501 38,000  Level Indianapolis Center
02:06PM 37.1361 -85.2025 350° North 436 502 38,000  Level Indianapolis Center
02:07PM 37.2558 -85.2322 349° North 438 504 38,000  Level Indianapolis Center
02:08PM 37.3756 -85.2606 349° North 437 503 38,000  Level Indianapolis Center
02:09PM 37.4953 -85.2894 349° North 437 503 38,000  Level Indianapolis Center
02:10PM 37.6125 -85.3200 348° North 430 495 38,000  Level Indianapolis Center
02:11PM 37.7314 -85.3489 349° North 433 498 38,000  Level Indianapolis Center
02:12PM 37.8708 -85.3122 12° North 476 548 38,000  Level Indianapolis Center
02:13PM 37.9914 -85.2506 22° Northeast 470 541 38,000  Level Indianapolis Center
02:14PM 38.1186 -85.1858 22° Northeast 469 540 38,000  Level Indianapolis Center
02:15PM 38.2314 -85.0969 32° Northeast 479 551 38,000  Level Indianapolis Center
02:16PM 38.3436 -85.0089 32° Northeast 474 545 38,000  Level Indianapolis Center
02:17PM 38.4556 -84.9200 32° Northeast 473 544 38,000  Level Indianapolis Center
02:18PM 38.5675 -84.8325 31° Northeast 471 542 38,000  Level Indianapolis Center
02:19PM 38.6969 -84.7306 32° Northeast 468 539 38,000  Level Indianapolis Center
02:20PM 38.8083 -84.6444 31° Northeast 466 536 38,000  Level Indianapolis Center
02:21PM 38.9169 -84.5875 22° Northeast 452 520 38,000  Level Indianapolis Center
02:22PM 39.0389 -84.5417 16° North 450 518 38,000  Level Indianapolis Center
02:23PM 39.1603 -84.4933 17° North 452 520 38,000  Level Indianapolis Center
02:25PM 39.3033 -84.4367 17° North 456 525 38,000  Level Indianapolis Center
02:26PM 39.4269 -84.3883 17° North 457 526 38,000  Level Indianapolis Center
02:27PM 39.5497 -84.3394 17° North 458 527 38,000  Level Indianapolis Center
02:28PM 39.6728 -84.3133 North 449 517 38,000  Level Indianapolis Center
02:29PM 39.7764 -84.3750 335° Northwest 407 468 38,000  Level Indianapolis Center
02:30PM 39.8792 -84.4436 333° Northwest 409 471 38,000 -300 Level Indianapolis Center
02:31PM 39.9808 -84.5111 333° Northwest 406 467 37,500 -780 Descending Indianapolis Center
02:32PM 40.0833 -84.5794 333° Northwest 407 468 36,500 -960 Descending Indianapolis Center
02:33PM 40.1886 -84.6494 333° Northwest 417 480 35,600 -960 Descending Indianapolis Center
02:34PM 40.2939 -84.7211 333° Northwest 422 486 34,600 -1,080 Descending Indianapolis Center
02:35PM 40.3981 -84.7906 333° Northwest 416 479 33,400 -1,620 Descending Indianapolis Center
02:36PM 40.5156 -84.8703 333° Northwest 405 466 31,300 -1,680 Descending Indianapolis Center
02:37PM 40.6125 -84.9367 333° Northwest 390 449 30,000 -900 Descending Indianapolis Center
02:37PM 40.6444 -84.9558 336° Northwest 392 451 30,000  Level Chicago Center
02:38PM 40.7361 -85.0217 331° Northwest 382 440 30,000  Level Chicago Center
02:39PM 40.8264 -85.1372 316° Northwest 376 433 30,000  Level Chicago Center
02:40PM 40.9056 -85.2378 316° Northwest 389 448 30,000  Level Chicago Center
02:41PM 40.9853 -85.3369 317° Northwest 392 451 30,000 -780 Level Chicago Center
02:42PM 41.0600 -85.4336 316° Northwest 385 443 28,400 -1,800 Descending Chicago Center
02:44PM 41.1325 -85.5250 317° Northwest 373 429 26,400 -1,980 Descending Chicago Center
02:45PM 41.2042 -85.6169 316° Northwest 361 415 24,400 -1,440 Descending Chicago Center
02:46PM 41.2733 -85.7064 316° Northwest 351 404 23,500 -960 Descending Chicago Center
02:47PM 41.3631 -85.8200 316° Northwest 365 420 22,500 -1,020 Descending Chicago Center
02:48PM 41.4169 -85.9350 302° West 360 414 21,400 -2,220 Descending Chicago Center
02:49PM 41.4456 -86.0583 287° West 347 399 18,000 -3,120 Descending Chicago Center
02:50PM 41.4731 -86.1769 287° West 336 387 15,100 -2,880 Descending Chicago Center
02:51PM 41.4994 -86.2922 287° West 327 376 12,100 -2,220 Descending Chicago Center
02:52PM 41.5228 -86.4047 286° West 318 366 10,600 -1,020 Descending Chicago Center
02:53PM 41.5208 -86.5194 269° West 312 359 10,000 -300 Descending Chicago Center
02:54PM 41.5203 -86.6536 270° West 303 349 10,000 -60 Level Chicago Center
02:55PM 41.5197 -86.7589 270° West 308 354 9,900 -300 Descending Chicago Center
02:56PM 41.5194 -86.8586 270° West 265 305 9,500 -1,140 Descending Chicago Center
02:57PM 41.5181 -86.9703 269° West 251 289 7,600 -1,260 Descending Chicago Center
02:58PM 41.5258 -87.0633 276° West 253 291 7,000 -300 Descending Chicago Center
02:59PM 41.5406 -87.1558 282° West 255 293 7,000 -900 Level Chicago Center
03:00PM 41.5500 -87.2667 277° West 264 304 5,200 -1,440 Descending Chicago TRACON
03:01PM 41.5667 -87.3667 283° West 255 293 4,000 -600 Descending Chicago TRACON
03:02PM 41.5667 -87.4500 270° West 249 287 4,000  Level Chicago TRACON
03:03PM 41.5667 -87.5500 270° West 251 289 4,000  Level Chicago TRACON
03:04PM 41.5667 -87.6167 270° West 253 291 4,000  Level Chicago TRACON
03:05PM 41.5667 -87.7167 270° West 255 293 4,000  Level Chicago TRACON
03:06PM 41.5667 -87.8167 270° West 261 300 4,000  Level Chicago TRACON
03:07PM 41.6000 -87.8833 304° West 222 255 4,000  Level Chicago TRACON
03:07PM 41.6044 -87.8867 331° Northwest 237 273 4,000  Level Chicago Center
03:08PM 41.6478 -87.9139 335° Northwest 219 252 4,000 -480 Level Chicago Center
03:09PM 41.6833 -87.8667 45° Northeast 206 237 3,200 -1,140 Descending Chicago TRACON
03:10PM 41.7333 -87.8167 37° Northeast 186 214 2,000 -960 Descending Chicago TRACON
03:11PM 41.7667 -87.7833 37° Northeast 130 150 1,200 -840 Descending Chicago TRACON